Change the Weather History Date:

Thursday, August 14, 2014

  Actual Average Record
Temperature  
Mean Temperature 71 °F 72 °F  
Max Temperature 81 °F 82 °F 99 °F (1936)
Min Temperature 60 °F 61 °F 43 °F (2004)
Degree Days  
Heating Degree Days 0 0  
Month to date heating degree days 0 0  
Since 1 June heating degree days 24 33  
Since 1 July heating degree days 19 4  
Cooling Degree Days 6 7  
Month to date cooling degree days 72 100  
Year to date cooling degree days 469 567  
Since 1 June cooling degree days 389 518  
Growing Degree Days 20 (Base 50)    
Moisture  
Dew Point 59 °F    
Average Humidity 74    
Maximum Humidity 100    
Minimum Humidity 48    
Precipitation  
Precipitation 0.00 in 0.15 in 1.05 in (1993)
Month to date precipitation 0.46 2.00  
Year to date precipitation 28.56 22.82  
Sea Level Pressure  
Sea Level Pressure 30.06 in    
Wind  
Wind Speed 5 mph (East)    
Max Wind Speed 12 mph    
Max Gust Speed 14 mph    
Visibility 10 miles    
Events      
T = Trace of Precipitation, MM = Missing Value Source: NWS Daily Summary

Daily Weather History Graph

Daily Weather History Graph

Search for Another Location

Airport or City:

Trip Planner

Search our weather history database for the weather conditions in past years. The results will help you decide how hot, cold, wet, or windy it might be!

Date:

Astronomy

Aug. 14, 2014 Rise Set
Actual Time 6:13 AM CDT 8:08 PM CDT
Civil Twilight 5:43 AM CDT 8:38 PM CDT
Nautical Twilight 5:06 AM CDT 9:14 PM CDT
Astronomical Twilight 4:27 AM CDT 9:54 PM CDT
Moon 10:26 PM CDT (8/14) 10:56 AM CDT (8/14)
Length of Visible Light 14h 54m
Length of Day
13h 54m
Waning Gibbous, 79% of the Moon is Illuminated
Aug 14
Waning Gibbous
Aug 17
Last Quarter
Aug 25
New
Sep 2
First Quarter
Sep 8
Full

Hourly Weather History & Observations

Time (CDT) Temp. Heat Index Dew Point Humidity Pressure Visibility Wind Dir Wind Speed Gust Speed Precip Events Conditions
12:52 AM 64.0 °F - 61.0 °F 90% 30.05 in 10.0 mi West 5.8 mph - N/A   Mostly Cloudy
1:52 AM 63.0 °F - 60.1 °F 90% 30.05 in 10.0 mi WNW 4.6 mph - N/A   Clear
2:52 AM 62.1 °F - 60.1 °F 93% 30.05 in 10.0 mi Calm Calm - N/A   Clear
3:52 AM 61.0 °F - 60.1 °F 97% 30.06 in 10.0 mi WNW 3.5 mph - N/A   Scattered Clouds
4:52 AM 62.1 °F - 60.1 °F 93% 30.06 in 10.0 mi Calm Calm - N/A   Mostly Cloudy
5:52 AM 61.0 °F - 59.0 °F 93% 30.07 in 10.0 mi NNE 4.6 mph - N/A   Partly Cloudy
6:52 AM 63.0 °F - 57.9 °F 84% 30.08 in 10.0 mi NE 4.6 mph - N/A   Clear
8:52 AM 64.9 °F - 55.9 °F 73% 30.10 in 10.0 mi ENE 9.2 mph - N/A   Clear
9:52 AM 69.1 °F - 57.0 °F 65% 30.11 in 10.0 mi ENE 9.2 mph - N/A   Clear
10:52 AM 72.0 °F - 57.9 °F 61% 30.11 in 10.0 mi NE 6.9 mph - N/A   Clear
11:52 AM 73.9 °F - 57.9 °F 57% 30.10 in 10.0 mi East 5.8 mph - N/A   Clear
12:52 PM 78.1 °F - 60.1 °F 54% 30.09 in 10.0 mi East 4.6 mph - N/A   Clear
1:52 PM 78.1 °F - 57.9 °F 50% 30.06 in 10.0 mi ESE 3.5 mph - N/A   Clear
2:52 PM 80.1 °F 81.1 °F 61.0 °F 52% 30.06 in 10.0 mi ESE 9.2 mph - N/A   Clear
3:52 PM 79.0 °F - 59.0 °F 50% 30.05 in 10.0 mi Calm Calm - N/A   Clear
4:52 PM 77.0 °F - 60.1 °F 56% 30.04 in 10.0 mi Calm Calm - N/A   Mostly Cloudy
5:52 PM 75.9 °F - 61.0 °F 60% 30.03 in 10.0 mi East 3.5 mph - N/A   Partly Cloudy
6:52 PM 75.0 °F - 63.0 °F 66% 30.02 in 10.0 mi ESE 4.6 mph - N/A   Clear
7:52 PM 71.1 °F - 61.0 °F 70% 30.02 in 10.0 mi East 5.8 mph - N/A   Clear
8:52 PM 68.0 °F - 61.0 °F 78% 30.01 in 10.0 mi East 5.8 mph - N/A   Clear
9:52 PM 64.9 °F - 59.0 °F 81% 30.03 in 10.0 mi East 4.6 mph - N/A   Clear
10:52 PM 63.0 °F - 59.0 °F 87% 30.03 in 10.0 mi East 5.8 mph - N/A   Clear
11:52 PM 62.1 °F - 57.9 °F 86% 30.02 in 10.0 mi ESE 5.8 mph - N/A   Clear